• In Deutschland
  • Länderverzeichnis
  • Für 7 Tage
  • Wassertemperatur
  • Satellitenkarten
  • Wetterkarte
  • Widgets
  • user-avatar
    Anmelden

    Stündliche Wetter Ischgl

    Heute, 24 Februar, Samstag

    Zeit Temperatur Niederschläge Wind Luftdruck Luftfeuchtigkeit
    00:00 -12°C° 0 mm 2 m/S 564 mmHg 78%
    01:00 -12°C° 0 mm 2 m/S 564 mmHg 77%
    02:00 -12°C° 0 mm 2 m/S 564 mmHg 78%
    03:00 -12°C° 0 mm 2 m/S 564 mmHg 78%
    04:00 -12°C° 0 mm 2 m/S 564 mmHg 79%
    05:00 -10°C° 0 mm 1 m/S 564 mmHg 79%
    06:00 -10°C° 0 mm 1 m/S 564 mmHg 80%
    07:00 -10°C° 0 mm 1 m/S 565 mmHg 80%
    08:00 -8°C° 0 mm 1 m/S 566 mmHg 81%
    09:00 -6°C° 0 mm 1 m/S 567 mmHg 81%
    10:00 -3°C° 0 mm 1 m/S 568 mmHg 81%
    11:00 -3°C° 0 mm 1 m/S 568 mmHg 84%
    12:00 -2°C° 0 mm 1 m/S 568 mmHg 87%
    13:00 -2°C° 0 mm 1 m/S 568 mmHg 90%
    14:00 -2°C° 0,1 mm 1 m/S 568 mmHg 91%
    15:00 -4°C° 0,1 mm 2 m/S 568 mmHg 91%
    16:00 -4°C° 0,1 mm 2 m/S 568 mmHg 91%
    17:00 -5°C° 0,1 mm 2 m/S 567 mmHg 93%
    18:00 -7°C° 0,1 mm 2 m/S 567 mmHg 94%
    19:00 -7°C° 0,1 mm 1 m/S 567 mmHg 95%
    20:00 -7°C° 0,1 mm 1 m/S 567 mmHg 95%
    21:00 -8°C° 0,1 mm 1 m/S 567 mmHg 95%
    22:00 -8°C° 0,1 mm 1 m/S 566 mmHg 95%
    23:00 -9°C° 0,1 mm 1 m/S 566 mmHg 95%

    Morgen, 25 Februar, Sonntag

    Zeit Temperatur Niederschläge Wind Luftdruck Luftfeuchtigkeit
    00:00 -9°C° 0,1 mm 1 m/S 566 mmHg 95%
    01:00 -9°C° 0,1 mm 1 m/S 566 mmHg 95%
    02:00 -10°C° 0,1 mm 1 m/S 566 mmHg 95%
    03:00 -10°C° 0,1 mm 1 m/S 566 mmHg 94%
    04:00 -10°C° 0,1 mm 1 m/S 566 mmHg 94%
    05:00 -11°C° 0,1 mm 1 m/S 565 mmHg 94%
    06:00 -11°C° 0,1 mm 1 m/S 565 mmHg 94%
    07:00 -12°C° 0,1 mm 1 m/S 565 mmHg 93%
    08:00 -13°C° 0,1 mm 2 m/S 565 mmHg 92%
    09:00 -13°C° 0,1 mm 2 m/S 566 mmHg 90%
    10:00 -12°C° 0,1 mm 2 m/S 566 mmHg 88%
    11:00 -12°C° 0,2 mm 2 m/S 566 mmHg 88%
    12:00 -12°C° 0,2 mm 2 m/S 566 mmHg 87%
    13:00 -13°C° 0,2 mm 3 m/S 566 mmHg 86%
    14:00 -14°C° 0,2 mm 3 m/S 565 mmHg 86%
    15:00 -14°C° 0,2 mm 3 m/S 565 mmHg 86%
    16:00 -15°C° 0,2 mm 3 m/S 565 mmHg 87%
    17:00 -16°C° 0,2 mm 3 m/S 564 mmHg 89%
    18:00 -17°C° 0,2 mm 2 m/S 564 mmHg 90%
    19:00 -18°C° 0,2 mm 2 m/S 563 mmHg 92%
    20:00 -19°C° 0,1 mm 2 m/S 563 mmHg 92%
    21:00 -20°C° 0,1 mm 2 m/S 563 mmHg 92%
    22:00 -19°C° 0,1 mm 1 m/S 562 mmHg 93%
    23:00 -19°C° 0,1 mm 1 m/S 562 mmHg 92%

    übermorgen, 26 Februar, Montag

    Zeit Temperatur Niederschläge Wind Luftdruck Luftfeuchtigkeit
    00:00 -20°C° 0,1 mm 1 m/S 562 mmHg 92%
    01:00 -20°C° 0,1 mm 1 m/S 561 mmHg 92%
    02:00 -21°C° 0,1 mm 1 m/S 561 mmHg 92%
    03:00 -21°C° 0,1 mm 1 m/S 561 mmHg 92%
    04:00 -21°C° 0,1 mm 1 m/S 560 mmHg 92%
    05:00 -22°C° 0,1 mm 1 m/S 560 mmHg 91%
    06:00 -22°C° 0,1 mm 1 m/S 560 mmHg 91%
    07:00 -22°C° 0,1 mm 1 m/S 560 mmHg 91%
    08:00 -24°C° 0,1 mm 2 m/S 560 mmHg 88%
    09:00 -23°C° 0,1 mm 2 m/S 561 mmHg 86%
    10:00 -21°C° 0,1 mm 2 m/S 561 mmHg 83%
    11:00 -20°C° 0,1 mm 2 m/S 561 mmHg 82%
    12:00 -20°C° 0,1 mm 2 m/S 562 mmHg 81%
    13:00 -21°C° 0,1 mm 3 m/S 562 mmHg 80%
    14:00 -21°C° 0,1 mm 3 m/S 561 mmHg 81%
    15:00 -21°C° 0,1 mm 3 m/S 561 mmHg 82%
    16:00 -21°C° 0,1 mm 3 m/S 561 mmHg 84%
    17:00 -21°C° 0,1 mm 2 m/S 560 mmHg 86%
    18:00 -23°C° 0,1 mm 2 m/S 560 mmHg 89%
    19:00 -24°C° 0,1 mm 2 m/S 559 mmHg 92%
    20:00 -25°C° 0,1 mm 2 m/S 559 mmHg 92%
    21:00 -22°C° 0,1 mm 1 m/S 559 mmHg 92%
    22:00 -23°C° 0,1 mm 1 m/S 559 mmHg 92%
    23:00 -23°C° 0 mm 1 m/S 558 mmHg 90%

    27 Februar, Dienstag

    Zeit Temperatur Niederschläge Wind Luftdruck Luftfeuchtigkeit
    00:00 -24°C° 0 mm 1 m/S 558 mmHg 89%
    01:00 -24°C° 0 mm 1 m/S 558 mmHg 88%
    02:00 -24°C° 0 mm 1 m/S 557 mmHg 87%
    03:00 -24°C° 0 mm 1 m/S 557 mmHg 86%
    04:00 -25°C° 0 mm 1 m/S 557 mmHg 85%
    05:00 -25°C° 0 mm 1 m/S 556 mmHg 85%
    06:00 -25°C° 0 mm 1 m/S 556 mmHg 85%
    07:00 -25°C° 0 mm 1 m/S 556 mmHg 85%
    08:00 -23°C° 0 mm 1 m/S 557 mmHg 80%
    09:00 -21°C° 0 mm 1 m/S 558 mmHg 75%
    10:00 -19°C° 0 mm 1 m/S 559 mmHg 71%
    11:00 -18°C° 0 mm 1 m/S 560 mmHg 70%
    12:00 -17°C° 0 mm 1 m/S 560 mmHg 70%
    13:00 -17°C° 0 mm 1 m/S 560 mmHg 69%
    14:00 -18°C° 0,1 mm 2 m/S 560 mmHg 73%
    15:00 -18°C° 0,1 mm 2 m/S 560 mmHg 76%
    16:00 -18°C° 0,1 mm 2 m/S 560 mmHg 80%
    17:00 -18°C° 0,1 mm 1 m/S 559 mmHg 84%
    18:00 -19°C° 0,1 mm 1 m/S 559 mmHg 89%
    19:00 -21°C° 0,1 mm 1 m/S 558 mmHg 93%
    20:00 -21°C° 0 mm 1 m/S 558 mmHg 92%
    21:00 -22°C° 0 mm 1 m/S 558 mmHg 91%
    22:00 -22°C° 0 mm 1 m/S 558 mmHg 90%
    23:00 -22°C° 0 mm 1 m/S 558 mmHg 89%

    28 Februar, Mittwoch

    Zeit Temperatur Niederschläge Wind Luftdruck Luftfeuchtigkeit
    00:00 -25°C° 0 mm 2 m/S 558 mmHg 87%
    01:00 -26°C° 0 mm 2 m/S 558 mmHg 85%
    02:00 -26°C° 0 mm 2 m/S 558 mmHg 84%
    03:00 -26°C° 0 mm 2 m/S 558 mmHg 84%
    04:00 -26°C° 0 mm 2 m/S 557 mmHg 83%
    05:00 -26°C° 0 mm 2 m/S 557 mmHg 82%
    06:00 -27°C° 0 mm 2 m/S 557 mmHg 82%
    07:00 -27°C° 0 mm 2 m/S 557 mmHg 81%
    08:00 -24°C° 0 mm 2 m/S 559 mmHg 78%
    09:00 -19°C° 0 mm 1 m/S 560 mmHg 74%
    10:00 -16°C° 0 mm 1 m/S 562 mmHg 70%
    11:00 -17°C° 0 mm 2 m/S 562 mmHg 68%
    12:00 -16°C° 0 mm 2 m/S 563 mmHg 66%
    13:00 -15°C° 0 mm 2 m/S 563 mmHg 63%
    14:00 -15°C° 0 mm 2 m/S 563 mmHg 65%
    15:00 -15°C° 0 mm 2 m/S 563 mmHg 67%
    16:00 -14°C° 0 mm 2 m/S 562 mmHg 69%
    17:00 -16°C° 0 mm 2 m/S 562 mmHg 74%
    18:00 -17°C° 0 mm 2 m/S 562 mmHg 79%
    19:00 -18°C° 0 mm 2 m/S 561 mmHg 84%
    20:00 -19°C° 0 mm 3 m/S 561 mmHg 83%
    21:00 -21°C° 0 mm 3 m/S 561 mmHg 83%
    22:00 -21°C° 0 mm 3 m/S 561 mmHg 83%
    23:00 -19°C° 0 mm 3 m/S 561 mmHg 82%

    1 März, Donnerstag

    Zeit Temperatur Niederschläge Wind Luftdruck Luftfeuchtigkeit
    00:00 -20°C° 0 mm 4 m/S 561 mmHg 82%
    01:00 -20°C° 0 mm 4 m/S 562 mmHg 81%
    02:00 -19°C° 0 mm 4 m/S 561 mmHg 81%
    03:00 -19°C° 0 mm 4 m/S 561 mmHg 81%
    04:00 -19°C° 0 mm 4 m/S 561 mmHg 81%
    05:00 -18°C° 0 mm 4 m/S 561 mmHg 81%
    06:00 -18°C° 0 mm 4 m/S 561 mmHg 82%
    07:00 -17°C° 0 mm 4 m/S 561 mmHg 82%
    08:00 -15°C° 0 mm 4 m/S 561 mmHg 81%
    09:00 -14°C° 0 mm 4 m/S 562 mmHg 80%
    10:00 -11°C° 0 mm 4 m/S 562 mmHg 80%
    11:00 -10°C° 0,1 mm 4 m/S 562 mmHg 80%
    12:00 -9°C° 0,1 mm 4 m/S 563 mmHg 81%
    13:00 -8°C° 0,1 mm 4 m/S 563 mmHg 82%
    14:00 -7°C° 0,1 mm 4 m/S 562 mmHg 83%
    15:00 -7°C° 0,1 mm 4 m/S 562 mmHg 84%
    16:00 -6°C° 0,1 mm 3 m/S 562 mmHg 85%
    17:00 -7°C° 0 mm 3 m/S 561 mmHg 86%
    18:00 -8°C° 0 mm 3 m/S 561 mmHg 86%
    19:00 -9°C° 0 mm 3 m/S 560 mmHg 87%
    20:00 -9°C° 0 mm 3 m/S 560 mmHg 87%
    21:00 -9°C° 0 mm 3 m/S 560 mmHg 86%
    22:00 -10°C° 0 mm 4 m/S 560 mmHg 85%
    23:00 -10°C° 0 mm 4 m/S 560 mmHg 85%
    Mehr zeigen